Date String (YYYY-MM-DD hh:mm:ss) UTC,Instrument flags,absolute air pressure of the measurement (hPa),sample flow rate (lpm),inlet stack bypass flow (lpm),air temperature of the measurement (°C),ambient temperature measured by the external sensor (°C),aerosol sample conditioner tube jacket temperature (°C),OPC LED temperature (°C),internal box temperature (°C),relative humidity of the measurement (%),span deviation,mass concentration of particles derived from Lorenz-Mie calculation of OPC scattering (μg/m³),mass concentration of particles derived from Lorenz-Mie calculation of OPC scattering (μg/m³),mass concentration of particles derived from Lorenz-Mie calculation of OPC scattering (μg/m³)
DateTimeUTC,F1_M11,P_M11,Q1_M11,Q2_M11,T1_M11,T2_M11,T3_M11,T4_M11,T5_M11,U1_M11,ZSPAN_M11,X0_M11,X2_M11,X1_M11
2023-07-31 08:00:00,SystemResetWarning,0833.8,5.00,000.00,029.2,028.1,000.0,037.6,030.9,26.5,0000.0,0009.70,0004.83,0004.20
2023-07-31 08:01:00,SystemResetWarning,0833.8,5.00,000.00,029.3,028.0,000.0,037.6,031.0,26.6,0000.0,0009.62,0004.74,0004.15
2023-07-31 08:02:00,SystemResetWarning,0833.8,4.98,000.00,029.3,026.4,000.0,037.5,030.7,26.6,0000.0,0009.65,0004.69,0004.11
2023-07-31 08:03:00,SystemResetWarning,0833.8,5.00,000.00,029.2,025.4,000.0,037.4,030.5,26.7,0000.0,0010.08,0004.68,0004.08
2023-07-31 08:04:00,SystemResetWarning,0833.8,5.01,000.00,029.1,025.4,000.0,037.4,030.3,26.8,0000.0,0009.92,0004.62,0004.05
2023-07-31 08:05:00,SystemResetWarning,0833.8,4.99,000.00,029.0,025.7,000.0,037.4,030.3,26.8,0000.0,0009.84,0004.58,0004.03
2023-07-31 08:06:00,SystemResetWarning,0833.8,4.99,000.00,029.0,026.1,000.0,037.5,030.4,26.8,0000.0,0009.75,0004.54,0004.02
2023-07-31 08:07:00,SystemResetWarning,0833.8,5.00,000.00,029.0,026.5,000.0,037.5,030.5,27.0,0000.0,0009.58,0004.45,0003.98
2023-07-31 08:08:00,SystemResetWarning,0833.8,5.00,000.00,029.0,026.8,000.0,037.5,030.5,27.0,0000.0,0009.19,0004.42,0003.94
2023-07-31 08:09:00,SystemResetWarning,0833.8,5.00,000.00,029.0,027.1,000.0,037.5,030.6,27.0,0000.0,0009.06,0004.40,0003.94
2023-07-31 08:10:00,SystemResetWarning,0833.9,5.00,000.00,029.1,027.3,000.0,037.5,030.7,27.0,0000.0,0009.16,0004.44,0003.97
2023-07-31 08:11:00,SystemResetWarning,0833.9,4.99,000.00,029.1,027.5,000.0,037.5,030.7,26.9,0000.0,0009.00,0004.47,0003.97
2023-07-31 08:12:00,SystemResetWarning,0833.8,5.00,000.00,029.1,027.7,000.0,037.5,030.8,26.9,0000.0,0008.67,0004.49,0003.95
2023-07-31 08:13:00,SystemResetWarning,0833.9,5.01,000.00,029.2,027.9,000.0,037.5,030.8,26.8,0000.0,0008.69,0004.46,0003.92
2023-07-31 08:14:00,SystemResetWarning,0833.8,5.01,000.00,029.2,028.0,000.0,037.6,030.9,26.8,0000.0,0007.98,0004.38,0003.88
2023-07-31 08:15:00,SystemResetWarning,0833.8,4.99,000.00,029.2,028.1,000.0,037.6,030.9,26.3,0000.0,0007.90,0004.32,0003.84
2023-07-31 08:16:00,SystemResetWarning,0833.9,4.99,000.00,029.3,028.2,000.0,037.6,031.0,26.0,0000.0,0007.83,0004.27,0003.81
2023-07-31 08:17:00,SystemResetWarning,0833.9,4.99,000.00,029.3,028.3,000.0,037.6,031.0,25.7,0000.0,0007.92,0004.25,0003.80
2023-07-31 08:18:00,SystemResetWarning,0833.9,4.99,000.00,029.3,027.5,000.0,037.6,031.0,25.7,0000.0,0008.31,0004.28,0003.80
2023-07-31 08:19:00,SystemResetWarning,0833.8,5.00,000.00,029.3,025.9,000.0,037.5,030.7,25.9,0000.0,0008.46,0004.30,0003.81
2023-07-31 08:20:00,SystemResetWarning,0833.8,5.00,000.00,029.2,025.4,000.0,037.4,030.5,26.1,0000.0,0008.40,0004.32,0003.80
2023-07-31 08:21:00,SystemResetWarning,0833.8,5.02,000.00,029.1,025.6,000.0,037.5,030.4,26.4,0000.0,0008.18,0004.30,0003.79
2023-07-31 08:22:00,SystemResetWarning,0833.9,4.99,000.00,029.1,026.0,000.0,037.5,030.4,26.7,0000.0,0008.04,0004.30,0003.79
2023-07-31 08:23:00,SystemResetWarning,0833.9,4.99,000.00,029.1,026.4,000.0,037.5,030.5,26.7,0000.0,0007.90,0004.28,0003.80
2023-07-31 08:24:00,SystemResetWarning,0833.9,5.00,000.00,029.1,026.7,000.0,037.5,030.6,26.3,0000.0,0007.75,0004.27,0003.81
2023-07-31 08:25:00,SystemResetWarning,0833.8,5.01,000.00,029.1,027.0,000.0,037.5,030.6,26.1,0000.0,0007.78,0004.30,0003.84
2023-07-31 08:26:00,SystemResetWarning,0833.9,5.00,000.00,029.1,027.3,000.0,037.5,030.7,26.1,0000.0,0007.90,0004.34,0003.88
2023-07-31 08:27:00,SystemResetWarning,0833.9,5.00,000.00,029.1,027.5,000.0,037.5,030.7,25.9,0000.0,0008.08,0004.39,0003.90
2023-07-31 08:28:00,SystemResetWarning,0833.9,5.00,000.00,029.2,027.7,000.0,037.6,030.8,25.8,0000.0,0007.95,0004.41,0003.91
2023-07-31 08:29:00,SystemResetWarning,0833.9,5.00,000.00,029.2,027.8,000.0,037.6,030.8,25.6,0000.0,0007.78,0004.40,0003.91
2023-07-31 08:30:00,SystemResetWarning,0833.9,5.00,000.00,029.2,028.0,000.0,037.6,030.9,25.6,0000.0,0007.97,0004.39,0003.90
2023-07-31 08:31:00,SystemResetWarning,0833.8,5.01,000.00,029.3,028.1,000.0,037.6,030.9,25.4,0000.0,0008.09,0004.34,0003.90
2023-07-31 08:32:00,SystemResetWarning,0833.8,5.00,000.00,029.3,028.2,000.0,037.6,031.0,25.5,0000.0,0008.13,0004.35,0003.89
2023-07-31 08:33:00,SystemResetWarning,0833.8,5.00,000.00,029.3,028.0,000.0,037.6,031.0,25.5,0000.0,0008.17,0004.36,0003.88
2023-07-31 08:34:00,SystemResetWarning,0833.7,4.99,000.00,029.3,026.4,000.0,037.5,030.8,25.3,0000.0,0008.25,0004.32,0003.85
2023-07-31 08:35:00,SystemResetWarning,0833.7,5.01,000.00,029.2,025.4,000.0,037.4,030.6,25.9,0000.0,0008.26,0004.31,0003.83
2023-07-31 08:36:00,SystemResetWarning,0833.7,5.01,000.00,029.1,025.5,000.0,037.5,030.4,26.1,0000.0,0008.20,0004.29,0003.82
2023-07-31 08:37:00,SystemResetWarning,0833.7,4.99,000.00,029.1,025.8,000.0,037.5,030.4,26.3,0000.0,0008.12,0004.26,0003.79
2023-07-31 08:38:00,SystemResetWarning,0833.7,5.00,000.00,029.1,026.2,000.0,037.5,030.5,26.4,0000.0,0008.35,0004.26,0003.79
2023-07-31 08:39:00,SystemResetWarning,0833.6,4.99,000.00,029.1,026.6,000.0,037.5,030.5,26.3,0000.0,0008.53,0004.25,0003.78
2023-07-31 08:40:00,SystemResetWarning,0833.6,5.00,000.00,029.1,026.9,000.0,037.5,030.6,26.1,0000.0,0008.66,0004.24,0003.78
2023-07-31 08:41:00,SystemResetWarning,0833.6,5.01,000.00,029.1,027.2,000.0,037.6,030.7,25.6,0000.0,0008.21,0004.26,0003.80
2023-07-31 08:42:00,SystemResetWarning,0833.5,5.01,000.00,029.1,027.4,000.0,037.6,030.7,25.5,0000.0,0008.56,0004.29,0003.80
2023-07-31 08:43:00,SystemResetWarning,0833.5,5.00,000.00,029.1,027.6,000.0,037.6,030.8,25.3,0000.0,0008.63,0004.26,0003.79
2023-07-31 08:44:00,SystemResetWarning,0833.6,4.99,000.00,029.2,027.8,000.0,037.6,030.8,25.1,0000.0,0008.52,0004.21,0003.78
2023-07-31 08:45:00,SystemResetWarning,0833.5,4.99,000.00,029.2,027.9,000.0,037.6,030.9,25.1,0000.0,0008.43,0004.20,0003.78
2023-07-31 08:46:00,SystemResetWarning,0833.5,4.99,000.00,029.3,028.0,000.0,037.6,030.9,24.9,0000.0,0008.43,0004.19,0003.78
2023-07-31 08:47:00,SystemResetWarning,0833.6,5.00,000.00,029.3,028.1,000.0,037.6,031.0,24.7,0000.0,0008.43,0004.18,0003.77
2023-07-31 08:48:00,SystemResetWarning,0833.6,5.00,000.00,029.3,028.2,000.0,037.7,031.0,24.8,0000.0,0008.51,0004.18,0003.77
2023-07-31 08:49:00,SystemResetWarning,0833.7,5.00,000.00,029.4,028.1,000.0,037.7,031.0,24.6,0000.0,0008.26,0004.15,0003.76
2023-07-31 08:50:00,SystemResetWarning,0833.6,5.00,000.00,029.3,026.5,000.0,037.6,030.8,24.6,0000.0,0008.26,0004.12,0003.74
2023-07-31 08:51:00,SystemResetWarning,0833.6,5.00,000.00,029.3,025.4,000.0,037.5,030.6,26.0,0000.0,0008.15,0004.15,0003.73
2023-07-31 08:52:00,SystemResetWarning,0833.7,5.00,000.00,029.2,025.4,000.0,037.5,030.4,26.2,0000.0,0008.10,0004.12,0003.72
2023-07-31 08:53:00,SystemResetWarning,0833.7,5.02,000.00,029.1,025.8,000.0,037.5,030.4,26.0,0000.0,0007.78,0004.09,0003.71
2023-07-31 08:54:00,SystemResetWarning,0833.7,4.99,000.00,029.1,026.2,000.0,037.5,030.5,25.9,0000.0,0007.42,0004.11,0003.73
2023-07-31 08:55:00,SystemResetWarning,0833.7,5.00,000.00,029.1,026.6,000.0,037.5,030.6,25.5,0000.0,0007.90,0004.14,0003.75
2023-07-31 08:56:00,SystemResetWarning,0833.8,5.00,000.00,029.1,026.9,000.0,037.5,030.6,25.6,0000.0,0008.12,0004.19,0003.78
2023-07-31 08:57:00,SystemResetWarning,0833.7,5.00,000.00,029.1,027.2,000.0,037.6,030.7,25.9,0000.0,0008.16,0004.22,0003.80
2023-07-31 08:58:00,SystemResetWarning,0833.8,5.00,000.00,029.1,027.4,000.0,037.6,030.8,26.6,0000.0,0008.18,0004.25,0003.82
2023-07-31 08:59:00,SystemResetWarning,0833.8,5.00,000.00,029.2,027.6,000.0,037.6,030.8,26.7,0000.0,0008.66,0004.29,0003.85
